Weather History for KPTT - February, 2014

Change the Weather History Date:

Friday, February 21, 2014

  Actual Average (KP28) Record (KP28)
Temperature  
Mean Temperature 42 °F 40 °F  
Max Temperature 59 °F 52 °F 83 °F (1935)
Min Temperature 24 °F 27 °F -3 °F (1939)
Degree Days  
Heating Degree Days 24 25  
Month to date heating degree days 584  
Since 1 July heating degree days 3361  
Cooling Degree Days 0 0  
Month to date cooling degree days 0  
Year to date cooling degree days 0  
Moisture  
Dew Point 19 °F    
Average Humidity 45    
Maximum Humidity 80    
Minimum Humidity 17    
Precipitation  
Precipitation 0.00 in 0.05 in 1.10 in (2013)
Month to date precipitation 0.72  
Year to date precipitation 1.43  
Snow  
Snow 0.00 in 0.10 in - ()
Month to date snowfall 1.9  
Since 1 July snowfall 8.1  
Snow Depth -    
Sea Level Pressure  
Sea Level Pressure 29.94 in    
Wind  
Wind Speed 12 mph (West)    
Max Wind Speed 29 mph    
Max Gust Speed 34 mph    
Visibility 10 miles    
Events      
T = Trace of Precipitation, MM = Missing Value Source: NWS Daily Summary

Daily Weather History Graph

Daily Weather History Graph

Search for Another Location

Airport or City:

Trip Planner

Search our weather history database for the weather conditions in past years. The results will help you decide how hot, cold, wet, or windy it might be!

Date:

Astronomy

Feb. 21, 2014 Rise Set
Actual Time 7:17 AM CST 6:20 PM CST
Civil Twilight 6:50 AM CST 6:47 PM CST
Nautical Twilight 6:20 AM CST 7:17 PM CST
Astronomical Twilight 5:49 AM CST 7:48 PM CST
Moon 12:08 AM CST (2/21) 10:49 AM CST (2/21)
Length of Visible Light 11h 56m
Length of Day
11h 03m
Waning Gibbous, 60% of the Moon is Illuminated
Feb 21
Waning Gibbous
Feb 22
Last Quarter
Mar 1
New
Mar 8
First Quarter
Mar 16
Full

Hourly Weather History & Observations

Time (CST) Temp. Windchill Dew Point Humidity Pressure Visibility Wind Dir Wind Speed Gust Speed Precip Events Conditions
12:15 AM 30.2 °F 20.8 °F 19.4 °F 64% 30.00 in 10.0 mi West 11.5 mph - N/A   Clear
12:35 AM 28.4 °F 19.7 °F 19.4 °F 69% 30.00 in 10.0 mi West 9.2 mph - N/A   Clear
12:55 AM 30.2 °F 20.8 °F 19.4 °F 64% 30.00 in 10.0 mi West 11.5 mph - N/A   Clear
1:15 AM 30.2 °F 21.9 °F 19.4 °F 64% 29.99 in 10.0 mi West 9.2 mph - N/A   Clear
1:35 AM 30.2 °F 21.3 °F 19.4 °F 64% 29.99 in 10.0 mi West 10.4 mph - N/A   Clear
1:55 AM 30.2 °F 19.8 °F 19.4 °F 64% 29.99 in 10.0 mi West 13.8 mph - N/A   Clear
2:15 AM 28.4 °F 20.4 °F 19.4 °F 69% 29.98 in 10.0 mi West 8.1 mph - N/A   Clear
2:35 AM 28.4 °F 19.1 °F 19.4 °F 69% 29.99 in 10.0 mi West 10.4 mph - N/A   Clear
2:55 AM 28.4 °F 19.1 °F 19.4 °F 69% 29.99 in 10.0 mi WSW 10.4 mph - N/A   Clear
3:15 AM 28.4 °F 19.7 °F 19.4 °F 69% 29.98 in 10.0 mi WSW 9.2 mph - N/A   Clear
3:35 AM 28.4 °F 18.0 °F 17.6 °F 64% 29.97 in 10.0 mi West 12.7 mph - N/A   Clear
3:55 AM 30.2 °F 20.2 °F 17.6 °F 60% 29.96 in 10.0 mi West 12.7 mph - N/A   Clear
4:15 AM 28.4 °F 20.4 °F 19.4 °F 69% 29.95 in 10.0 mi WSW 8.1 mph - N/A   Clear
4:35 AM 26.6 °F 19.1 °F 19.4 °F 74% 29.95 in 10.0 mi WSW 6.9 mph - N/A   Clear
4:55 AM 24.8 °F 16.1 °F 19.4 °F 80% 29.95 in 10.0 mi SW 8.1 mph - N/A   Clear
5:15 AM 24.8 °F 14.6 °F 19.4 °F 80% 29.95 in 10.0 mi SW 10.4 mph - N/A   Clear
5:35 AM 28.4 °F 19.7 °F 17.6 °F 64% 29.96 in 10.0 mi WSW 9.2 mph - N/A   Clear
5:55 AM 28.4 °F 18.5 °F 17.6 °F 64% 29.95 in 10.0 mi WSW 11.5 mph - N/A   Clear
6:15 AM 28.4 °F 19.7 °F 17.6 °F 64% 29.94 in 10.0 mi SW 9.2 mph - N/A   Clear
6:35 AM 28.4 °F 19.1 °F 17.6 °F 64% 29.94 in 10.0 mi WSW 10.4 mph - N/A   Clear
6:55 AM 26.6 °F 18.2 °F 17.6 °F 69% 29.95 in 10.0 mi WSW 8.1 mph - N/A   Clear
7:15 AM 26.6 °F 18.2 °F 17.6 °F 69% 29.95 in 10.0 mi WSW 8.1 mph - N/A   Clear
7:35 AM 26.6 °F 15.7 °F 17.6 °F 69% 29.93 in 10.0 mi SW 12.7 mph - N/A   Clear
7:55 AM 30.2 °F 21.9 °F 17.6 °F 60% 29.95 in 10.0 mi WSW 9.2 mph - N/A   Clear
8:15 AM 32.0 °F 22.5 °F 17.6 °F 55% 29.95 in 10.0 mi WSW 12.7 mph - N/A   Clear
8:35 AM 33.8 °F 24.3 °F 17.6 °F 52% 29.95 in 10.0 mi WSW 13.8 mph - N/A   Clear
8:55 AM 37.4 °F 27.8 °F 15.8 °F 41% 29.95 in 10.0 mi WSW 17.3 mph - N/A   Clear
9:15 AM 39.2 °F 29.3 °F 15.8 °F 39% 29.95 in 10.0 mi WSW 20.7 mph 24.2 mph N/A   Clear
9:35 AM 41.0 °F 31.6 °F 15.8 °F 36% 29.95 in 10.0 mi WSW 20.7 mph - N/A   Clear
9:55 AM 42.8 °F 34.5 °F 15.8 °F 34% 29.95 in 10.0 mi WSW 18.4 mph 24.2 mph N/A   Clear
10:15 AM 44.6 °F 35.5 °F 14.0 °F 29% 29.96 in 10.0 mi WSW 25.3 mph 29.9 mph N/A   Clear
10:35 AM 46.4 °F 38.1 °F 17.6 °F 32% 29.95 in 10.0 mi WSW 24.2 mph 32.2 mph N/A   Clear
10:55 AM 50.0 °F - 17.6 °F 28% 29.95 in 10.0 mi WSW 23.0 mph 31.1 mph N/A   Clear
11:15 AM 51.8 °F - 19.4 °F 28% 29.94 in 10.0 mi WSW 28.8 mph 34.5 mph N/A   Clear
11:35 AM 53.6 °F - 17.6 °F 24% 29.94 in 10.0 mi WSW 25.3 mph - N/A   Clear
11:55 AM 55.4 °F - 17.6 °F 23% 29.94 in 10.0 mi West 21.9 mph 29.9 mph N/A   Clear
12:15 PM 55.4 °F - 15.8 °F 21% 29.94 in 10.0 mi West 18.4 mph 26.5 mph N/A   Clear
12:35 PM 57.2 °F - 14.0 °F 18% 29.93 in 10.0 mi NW 19.6 mph 26.5 mph N/A   Clear
12:55 PM 59.0 °F - 14.0 °F 17% 29.93 in 10.0 mi WNW 13.8 mph 25.3 mph N/A   Clear
1:15 PM 55.4 °F - 15.8 °F 21% 29.92 in 10.0 mi NW 19.6 mph 27.6 mph N/A   Clear
1:35 PM 57.2 °F - 15.8 °F 20% 29.92 in 10.0 mi NW 13.8 mph 23.0 mph N/A   Clear
1:55 PM 59.0 °F - 17.6 °F 20% 29.91 in 10.0 mi NNW 18.4 mph 21.9 mph N/A   Clear
2:15 PM 59.0 °F - 17.6 °F 20% 29.91 in 10.0 mi NW 17.3 mph - N/A   Clear
2:35 PM 59.0 °F - 17.6 °F 20% 29.90 in 10.0 mi West 15.0 mph 23.0 mph N/A   Clear
2:55 PM 59.0 °F - 17.6 °F 20% 29.90 in 10.0 mi NW 17.3 mph 21.9 mph N/A   Clear
3:15 PM 59.0 °F - 15.8 °F 19% 29.90 in 10.0 mi NW 16.1 mph 28.8 mph N/A   Clear
3:35 PM 59.0 °F - 15.8 °F 19% 29.90 in 10.0 mi WNW 19.6 mph 25.3 mph N/A   Clear
3:55 PM 59.0 °F - 17.6 °F 20% 29.90 in 10.0 mi NNW 13.8 mph 20.7 mph N/A   Clear
4:15 PM 59.0 °F - 17.6 °F 20% 29.90 in 10.0 mi NNW 11.5 mph - N/A   Clear
4:35 PM 57.2 °F - 17.6 °F 21% 29.90 in 10.0 mi NNW 9.2 mph - N/A   Clear
4:55 PM 55.4 °F - 19.4 °F 25% 29.90 in 10.0 mi NW 9.2 mph - N/A   Clear
5:15 PM 55.4 °F - 17.6 °F 23% 29.89 in 10.0 mi North 4.6 mph - N/A   Clear
5:35 PM 53.6 °F - 19.4 °F 26% 29.89 in 10.0 mi North 4.6 mph - N/A   Clear
5:55 PM 51.8 °F - 21.2 °F 30% 29.90 in 10.0 mi NNE 5.8 mph - N/A   Clear
6:15 PM 50.0 °F - 21.2 °F 32% 29.90 in 10.0 mi NNE 5.8 mph - N/A   Clear
6:35 PM 48.2 °F - 21.2 °F 34% 29.91 in 10.0 mi NE 3.5 mph - N/A   Clear
6:55 PM 46.4 °F 45.2 °F 21.2 °F 37% 29.92 in 10.0 mi East 3.5 mph - N/A   Clear
7:15 PM 46.4 °F 43.5 °F 21.2 °F 37% 29.92 in 10.0 mi ESE 5.8 mph - N/A   Clear
7:35 PM 46.4 °F 43.5 °F 21.2 °F 37% 29.92 in 10.0 mi ESE 5.8 mph - N/A   Clear
7:55 PM 46.4 °F 43.5 °F 19.4 °F 34% 29.91 in 10.0 mi ESE 5.8 mph - N/A   Clear
8:15 PM 44.6 °F 40.7 °F 21.2 °F 39% 29.91 in 10.0 mi SSE 6.9 mph - N/A   Clear
8:35 PM 44.6 °F 40.7 °F 21.2 °F 39% 29.92 in 10.0 mi SSE 6.9 mph - N/A   Clear
8:55 PM 42.8 °F 38.6 °F 21.2 °F 42% 29.91 in 10.0 mi SSE 6.9 mph - N/A   Clear
9:15 PM 42.8 °F 38.6 °F 21.2 °F 42% 29.91 in 10.0 mi SSE 6.9 mph - N/A   Clear
9:35 PM 41.0 °F 36.4 °F 21.2 °F 45% 29.91 in 10.0 mi SE 6.9 mph - N/A   Clear
9:55 PM 41.0 °F 38.0 °F 21.2 °F 45% 29.91 in 10.0 mi SE 4.6 mph - N/A   Clear
10:15 PM 37.4 °F - 23.0 °F 56% 29.92 in 10.0 mi Calm Calm - N/A   Clear
10:35 PM 35.6 °F - 23.0 °F 60% 29.92 in 10.0 mi Calm Calm - N/A   Clear
10:55 PM 33.8 °F 29.6 °F 23.0 °F 65% 29.92 in 10.0 mi NE 4.6 mph - N/A   Clear
11:15 PM 35.6 °F 31.7 °F 23.0 °F 60% 29.92 in 10.0 mi NE 4.6 mph - N/A   Clear
11:35 PM 33.8 °F 29.6 °F 23.0 °F 65% 29.92 in 10.0 mi NE 4.6 mph - N/A   Clear
11:55 PM 35.6 °F 32.8 °F 23.0 °F 60% 29.91 in 10.0 mi ENE 3.5 mph - N/A   Clear